This is the latest recevied weather packets stored in our database for station/object N5SRF. If no packets are shown the sender has not sent any weather packets the latest 10 day(s).
| Time | Temp. | Humidity | Pressure | Rain* | Wind** | Luminosity | Snow |
|---|---|---|---|---|---|---|---|
| 1777737337 | 19.44° C | 74% | 1025.1 hPa | 0 mm | - | 630 W/m² | - |
| 1777737033 | 18.89° C | 76% | 1025.2 hPa | 0 mm | - | 617 W/m² | - |
| 1777736728 | 18.89° C | 75% | 1025.1 hPa | 0 mm | - | 602 W/m² | - |
| 1777736101 | 18.89° C | 76% | 1025.3 hPa | 0 mm | - | 579 W/m² | - |
| 1777735798 | 18.33° C | 77% | 1025 hPa | 0 mm | - | 566 W/m² | - |
| 1777735495 | 18.33° C | 78% | 1025.2 hPa | 0 mm | - | 553 W/m² | - |
| 1777735193 | 18.33° C | 78% | 1025.3 hPa | 0 mm | - | 540 W/m² | - |
| 1777734890 | 18.33° C | 79% | 1025.1 hPa | 0 mm | - | 525 W/m² | - |
| 1777734587 | 18.33° C | 81% | 1025.3 hPa | 0 mm | - | 512 W/m² | - |
| 1777734284 | 17.78° C | 81% | 1025 hPa | 0 mm | - | 499 W/m² | - |
| 1777733980 | 17.78° C | 80% | 1025.1 hPa | 0 mm | - | 484 W/m² | - |
| 1777733677 | 17.78° C | 80% | 1025.1 hPa | 0 mm | - | 465 W/m² | - |
| 1777733373 | 17.78° C | 81% | 1024.9 hPa | 0 mm | - | 451 W/m² | - |
| 1777733070 | 17.78° C | 82% | 1025.1 hPa | 0 mm | - | 438 W/m² | - |
| 1777732766 | 17.78° C | 83% | 1025.1 hPa | 0 mm | - | 424 W/m² | - |
| 1777732463 | 17.22° C | 84% | 1024.7 hPa | 0 mm | - | 406 W/m² | - |
| 1777732161 | 17.22° C | 84% | 1024.6 hPa | 0 mm | - | 393 W/m² | - |
| 1777731857 | 16.67° C | 84% | 1024.8 hPa | 0 mm | - | 378 W/m² | - |
| 1777731555 | 16.67° C | 84% | 1024.6 hPa | 0 mm | - | 361 W/m² | - |
| 1777731252 | 16.67° C | 85% | 1024.7 hPa | 0 mm | - | 344 W/m² | - |
| 1777730950 | 16.67° C | 85% | 1024.7 hPa | 0 mm | - | 328 W/m² | - |
| 1777730648 | 16.11° C | 86% | 1024.7 hPa | 0 mm | - | 315 W/m² | - |
| 1777730344 | 16.11° C | 87% | 1024.4 hPa | 0 mm | - | 297 W/m² | - |
| 1777730040 | 16.11° C | 88% | 1024.6 hPa | 0 mm | - | 277 W/m² | - |
| 1777729736 | 15.56° C | 87% | 1024.5 hPa | 0 mm | - | 262 W/m² | - |
* Rain latest hour (hover to see other rain measurements)
** Current wind speed in m/s (hover to see current wind gust speed)